Find Starlink 32921

NORAD ID: 62920 Int'l Des: 2025-027 Owner: SPXS Country: US Constellation: starlink operational
LEOCIRCULAR

現在のビュー

3D地球を読み込み中...

About Starlink 32921

Starlink 32921 (NORAD 62920) is a starlink constellation satellite (v2 mini) launched Feb 8, 2025 by SPXS of US. It operates in LEO, CIRCULAR orbit with a mass of 730.00 kg.

次回通過

Passes for default location (London). Set your location on the main map for personalized predictions.

高度履歴

Loading altitude history...

軌道要素

1 62920U 25027P 26224.56539461 .00026734 00000-0 95975-3 0 9990
2 62920 43.0017 328.3866 0002117 270.5437 89.5172 15.28180897 85386
Epoch: Aug 12, 2026 • Age: 11 hours

現在のステータス

高度 487.9 km
遠地点 / 近地点 N/A
速度 7.62 km/s
衛星直下点 -29.38°S, 37.77°W
打ち上げ日 Feb 8, 2025
運用期間 1.5 years
タイプ internet

技術仕様

分類 Payload
質量 730.00 kg
乾燥質量 700.00 kg
総質量 730.00 kg
長さ 0.30 m
直径 4.10 m
スパン 29.00 m
形状 Box + pan
製造者 SPXS
バスタイプ Starlink V2M
フェーズステータス In Orbit
所有者/国 SPXS/US

Most Searched